Regional Weather Roundup
Issued by NWS

Home | Current Version | Previous Version | Text Only | Print | Product List | Glossary On
Versions: 1 2 3 4 5 6 7 8 9 10 11 12 13 14 15 16 17 18 19 20 21 22 23 24 25 26 27 28
000
ASUS46 KPQR 171310
RWROR

OREGON REGIONAL WEATHER ROUNDUP
NATIONAL WEATHER SERVICE PORTLAND OR
600 AM PDT THU APR 17 2014

NOTE: "FAIR" INDICATES FEW OR NO CLOUDS BELOW 12,000 FEET WITH
NO SIGNIFICANT WEATHER AND/OR OBSTRUCTIONS TO VISIBILITY.

ORZ001>013-171400-
NORTHWEST OREGON


CITY           SKY/WX    TMP DP  RH WIND       PRES   REMARKS
ASTORIA        LGT RAIN  52  49  89 S7        29.87F
NEWPORT        CLOUDY    50  48  93 S3        29.95F
PORTLAND       LGT RAIN  50  49  96 SE5       29.92F
VANCOUVER WA   LGT RAIN  51  48  89 SE5       29.91F
SCAPPOOSE      LGT RAIN  51  50  96 SE3       29.90F FOG
HILLSBORO      CLOUDY    50  48  93 CALM      29.90F FOG
AURORA         CLOUDY    50  49  96 CALM      29.92F
MCMINNVILLE    LGT RAIN  50  50 100 SW3       29.92F FOG
SALEM          CLOUDY    50  48  93 W3        29.91S
CORVALLIS      CLOUDY    50  46  87 CALM      29.92F
EUGENE         CLOUDY    50  47  89 CALM      29.91F
$$

ORZ021-028-171400-
SOUTHWEST OREGON


CITY           SKY/WX    TMP DP  RH WIND       PRES   REMARKS
NORTH BEND     CLOUDY    52  52 100 SE5       29.95S
BROOKINGS      CLOUDY    48  46  93 VRB3      29.95S
ROSEBURG       MOCLDY    51  44  77 CALM      29.92F
SEXTON SUMMIT  CLEAR     43  39  86 S7        29.89F
MEDFORD        CLEAR     45  41  86 CALM      29.91S
$$

ORZ009-041-171400-
COLUMBIA GORGE


CITY           SKY/WX    TMP DP  RH WIND       PRES   REMARKS
TROUTDALE      LGT RAIN  51  48  89 E3        29.90F
THE DALLES     CLOUDY    51  45  79 S5        29.89F
$$

ORZ029>031-042>050-061>064-171400-
EASTERN OREGON


CITY           SKY/WX    TMP DP  RH WIND       PRES   REMARKS
REDMOND        CLOUDY    43  35  73 CALM      29.88F
BEND           CLOUDY    46  37  71 CALM      29.89F
KLAMATH FALLS  CLEAR     33  30  88 E3        29.91F
LAKEVIEW       CLEAR     28  27  93 N7        29.94F WCI  21
HERMISTON      LGT RAIN  50  47  89 S6        29.88F
PENDLETON      CLOUDY    46  40  79 CALM      29.88F
JOHN DAY       CLOUDY    43  32  65 E8        29.90F
MEACHAM        CLOUDY    39  37  92 CALM      29.88F
LA GRANDE      CLOUDY    43  30  61 NE5       29.89F
BAKER CITY     MOCLDY    36  32  85 CALM      29.92F
BURNS          PTCLDY    30  25  81 CALM      29.93F
ROME             N/A     35  20  54 S5        29.93F WCI  31
ONTARIO        MOCLDY    36  27  69 CALM      29.98R
$$



USA.gov is the U.S. government's official web portal to all federal, state and local government web resources and services.